| time (UTC) | temp F | wind direction | speed knots | gust knots | rain 1hr in | rain 24hr in | rain mn in | humidity % | barometer mb |
| 20260507202511 | 60 | 200 | 1.7 | 11.3 | 0.00 | 0.13 | 0.13 | 62 | 1004.2 |
| 20260507201512 | 60 | 187 | 3.5 | 9.6 | 0.00 | 0.13 | 0.13 | 62 | 1004.3 |
| 20260507201011 | 61 | 188 | 1.7 | 11.3 | 0.00 | 0.13 | 0.13 | 61 | 1004.4 |
| 20260507200511 | 60 | 204 | 2.6 | 13.0 | 0.00 | 0.13 | 0.13 | 63 | 1004.2 |
| 20260507200011 | 60 | 194 | 1.7 | 13.0 | 0.00 | 0.13 | 0.13 | 65 | 1003.7 |
| 20260507195512 | 60 | 174 | 3.5 | 7.8 | 0.00 | 0.13 | 0.13 | 66 | 1004.1 |
| 20260507195011 | 59 | 187 | 2.6 | 7.8 | 0.00 | 0.13 | 0.13 | 67 | 1004.5 |
| 20260507194511 | 59 | 199 | 4.3 | 7.8 | 0.00 | 0.13 | 0.13 | 67 | 1004.2 |
| 20260507193511 | 59 | 201 | 0.9 | 7.0 | 0.00 | 0.13 | 0.13 | 67 | 1004.9 |
| 20260507193011 | 58 | 175 | 2.6 | 12.2 | 0.00 | 0.13 | 0.13 | 67 | 1004.6 |
| 20260507192511 | 58 | 186 | 1.7 | 12.2 | 0.00 | 0.13 | 0.13 | 67 | 1004.8 |
| 20260507192011 | 58 | 192 | 7.0 | 12.2 | 0.00 | 0.13 | 0.13 | 67 | 1004.6 |
| 20260507191511 | 58 | 202 | 1.7 | 9.6 | 0.00 | 0.13 | 0.13 | 67 | 1005.0 |
| 20260507191010 | 58 | 191 | 3.5 | 14.8 | 0.00 | 0.13 | 0.13 | 66 | 1005.2 |
| 20260507190511 | 58 | 186 | 4.3 | 14.8 | 0.00 | 0.13 | 0.13 | 66 | 1005.3 |
| 20260507190011 | 58 | 208 | 5.2 | 14.8 | 0.00 | 0.13 | 0.13 | 67 | 1005.0 |
| 20260507185511 | 58 | 212 | 6.1 | 15.6 | 0.00 | 0.13 | 0.13 | 68 | 1005.1 |
| 20260507185011 | 58 | 191 | 3.5 | 15.6 | 0.00 | 0.13 | 0.13 | 69 | 1004.8 |
| 20260507184511 | 58 | 196 | 8.7 | 13.9 | 0.00 | 0.13 | 0.13 | 69 | 1004.4 |
| 20260507184011 | 58 | 203 | 3.5 | 18.2 | 0.00 | 0.13 | 0.13 | 69 | 1004.3 |
| 20260507183510 | 58 | 185 | 5.2 | 18.2 | 0.00 | 0.13 | 0.13 | 69 | 1003.8 |
| 20260507183011 | 58 | 200 | 3.5 | 18.2 | 0.00 | 0.13 | 0.13 | 70 | 1003.6 |
| 20260507182511 | 58 | 204 | 7.0 | 19.1 | 0.00 | 0.13 | 0.13 | 71 | 1002.8 |
| 20260507182011 | 58 | 159 | 7.0 | 19.1 | 0.00 | 0.13 | 0.13 | 70 | 1003.1 |
| 20260507181512 | 58 | 163 | 4.3 | 15.6 | 0.00 | 0.13 | 0.13 | 71 | 1002.2 |
| 20260507181012 | 58 | 200 | 6.1 | 18.2 | 0.00 | 0.13 | 0.13 | 72 | 1001.8 |
| 20260507180510 | 58 | 218 | 6.1 | 18.2 | 0.00 | 0.13 | 0.13 | 73 | 1001.8 |
| 20260507180011 | 58 | 214 | 6.1 | 20.0 | 0.00 | 0.13 | 0.13 | 72 | 1001.8 |
| 20260507175012 | 58 | 191 | 5.2 | 20.0 | 0.00 | 0.13 | 0.13 | 73 | 1002.5 |
| 20260507174511 | 58 | 190 | 6.1 | 19.1 | 0.00 | 0.13 | 0.13 | 74 | 1002.1 |
| 20260507174011 | 58 | 204 | 7.0 | 19.1 | 0.01 | 0.13 | 0.13 | 74 | 1002.4 |
| 20260507173511 | 57 | 200 | 3.5 | 11.3 | 0.01 | 0.13 | 0.13 | 75 | 1001.9 |
| 20260507173010 | 57 | 199 | 7.8 | 17.4 | 0.01 | 0.13 | 0.13 | 74 | 1001.4 |
| 20260507172511 | 57 | 207 | 5.2 | 17.4 | 0.02 | 0.13 | 0.13 | 74 | 1001.7 |
| 20260507172011 | 57 | 216 | 5.2 | 15.6 | 0.02 | 0.13 | 0.13 | 76 | 1002.6 |
| 20260507171012 | 56 | 192 | 7.8 | 13.9 | 0.02 | 0.13 | 0.13 | 80 | 1002.8 |
| 20260507170011 | 55 | 192 | 7.0 | 17.4 | 0.02 | 0.13 | 0.13 | 84 | 1003.2 |
| 20260507165511 | 55 | 204 | 12.2 | 17.4 | 0.02 | 0.13 | 0.13 | 85 | 1003.8 |
| 20260507165011 | 55 | 199 | 7.0 | 13.9 | 0.04 | 0.13 | 0.13 | 87 | 1003.5 |
| 20260507164511 | 55 | 188 | 8.7 | 13.0 | 0.05 | 0.13 | 0.13 | 87 | 1004.2 |
| 20260507164010 | 55 | 209 | 6.1 | 12.2 | 0.05 | 0.12 | 0.12 | 87 | 1005.6 |
| 20260507163511 | 56 | 308 | 3.5 | 13.9 | 0.05 | 0.12 | 0.12 | 87 | 1006.6 |
| 20260507163011 | 56 | 327 | 2.6 | 13.9 | 0.05 | 0.12 | 0.12 | 85 | 1007.9 |
| 20260507162510 | 57 | 300 | 3.5 | 9.6 | 0.04 | 0.11 | 0.11 | 83 | 1007.8 |
| 20260507162011 | 57 | 284 | 1.7 | 7.0 | 0.04 | 0.11 | 0.11 | 83 | 1007.4 |
| 20260507161511 | 57 | 197 | 3.5 | 7.8 | 0.04 | 0.11 | 0.11 | 82 | 1006.5 |
| 20260507161010 | 57 | 207 | 3.5 | 9.6 | 0.04 | 0.11 | 0.11 | 82 | 1006.0 |
| 20260507160512 | 57 | 182 | 3.5 | 13.0 | 0.04 | 0.11 | 0.11 | 83 | 1005.6 |
| 20260507160010 | 57 | 158 | 5.2 | 15.6 | 0.04 | 0.11 | 0.11 | 82 | 1004.4 |
| 20260507155010 | 58 | 166 | 6.1 | 18.2 | 0.02 | 0.09 | 0.09 | 80 | 1004.8 |
| 20260507154511 | 59 | 181 | 3.5 | 18.2 | 0.01 | 0.08 | 0.08 | 78 | 1004.9 |
| 20260507154010 | 59 | 198 | 9.6 | 18.2 | 0.00 | 0.07 | 0.07 | 73 | 1006.2 |
| 20260507153511 | 60 | 298 | 4.3 | 13.9 | 0.00 | 0.07 | 0.07 | 68 | 1007.8 |
| 20260507153010 | 61 | 306 | 5.2 | 13.0 | 0.00 | 0.07 | 0.07 | 64 | 1009.5 |
| 20260507152511 | 61 | 243 | 5.2 | 19.1 | 0.00 | 0.07 | 0.07 | 63 | 1009.6 |
| 20260507152011 | 62 | 207 | 1.7 | 19.1 | 0.00 | 0.07 | 0.07 | 61 | 1007.6 |
| 20260507151012 | 63 | 189 | 8.7 | 23.5 | 0.00 | 0.07 | 0.07 | 60 | 1005.9 |
| 20260507150010 | 62 | 194 | 5.2 | 23.5 | 0.01 | 0.07 | 0.07 | 64 | 1005.4 |
| 20260507145511 | 62 | 182 | 11.3 | 23.5 | 0.01 | 0.07 | 0.07 | 65 | 1004.8 |
| 20260507145010 | 62 | 160 | 8.7 | 23.5 | 0.01 | 0.07 | 0.07 | 67 | 1004.3 |
| 20260507144011 | 61 | 194 | 7.0 | 34.8 | 0.01 | 0.07 | 0.07 | 67 | 1004.1 |
| 20260507143510 | 61 | 188 | 17.4 | 34.8 | 0.01 | 0.07 | 0.07 | 67 | 1004.3 |
| 20260507143012 | 61 | 209 | 12.2 | 31.3 | 0.01 | 0.07 | 0.07 | 68 | 1004.3 |
| 20260507142511 | 60 | 214 | 14.8 | 31.3 | 0.01 | 0.07 | 0.07 | 71 | 1004.3 |
| 20260507142011 | 60 | 205 | 10.4 | 27.8 | 0.01 | 0.07 | 0.07 | 73 | 1004.4 |
| 20260507141511 | 59 | 208 | 13.0 | 23.5 | 0.01 | 0.07 | 0.07 | 78 | 1004.8 |
| 20260507141010 | 59 | 205 | 13.9 | 23.5 | 0.01 | 0.07 | 0.07 | 77 | 1005.0 |
| 20260507140510 | 60 | 211 | 10.4 | 26.1 | 0.01 | 0.07 | 0.07 | 74 | 1005.7 |
| 20260507140010 | 60 | 197 | 13.0 | 26.9 | 0.00 | 0.06 | 0.06 | 70 | 1005.9 |
| 20260507135512 | 62 | 188 | 13.0 | 26.9 | 0.00 | 0.06 | 0.06 | 62 | 1006.1 |
| 20260507134510 | 62 | 211 | 12.2 | 26.1 | 0.00 | 0.06 | 0.06 | 63 | 1006.2 |
| 20260507134010 | 62 | 194 | 13.0 | 26.1 | 0.00 | 0.06 | 0.06 | 63 | 1004.4 |
| 20260507133511 | 63 | 183 | 5.2 | 20.9 | 0.00 | 0.06 | 0.06 | 65 | 1003.8 |
| 20260507133010 | 63 | 188 | 4.3 | 20.9 | 0.00 | 0.06 | 0.06 | 67 | 1003.0 |
| 20260507132510 | 63 | 196 | 8.7 | 21.7 | 0.00 | 0.06 | 0.06 | 66 | 1003.1 |
| 20260507132011 | 63 | 207 | 6.1 | 23.5 | 0.00 | 0.06 | 0.06 | 67 | 1003.2 |
| 20260507131510 | 63 | 212 | 8.7 | 23.5 | 0.00 | 0.06 | 0.06 | 68 | 1002.6 |
| 20260507131011 | 64 | 202 | 10.4 | 21.7 | 0.00 | 0.06 | 0.06 | 67 | 1002.8 |
| 20260507130510 | 64 | 194 | 7.0 | 21.7 | 0.00 | 0.06 | 0.06 | 69 | 1003.0 |
| 20260507130010 | 64 | 183 | 11.3 | 21.7 | 0.00 | 0.06 | 0.06 | 69 | 1003.8 |
| 20260507125510 | 64 | 191 | 8.7 | 18.2 | 0.00 | 0.06 | 0.06 | 68 | 1003.3 |
| 20260507125011 | 64 | 193 | 12.2 | 18.2 | 0.00 | 0.06 | 0.06 | 66 | 1003.2 |
| 20260507124010 | 65 | 189 | 4.3 | 21.7 | 0.00 | 0.06 | 0.06 | 66 | 1002.7 |
| 20260507123010 | 65 | 174 | 7.0 | 17.4 | 0.00 | 0.06 | 0.06 | 71 | 1002.9 |
| 20260507122510 | 65 | 177 | 8.7 | 18.2 | 0.00 | 0.06 | 0.06 | 73 | 1002.5 |
| 20260507122011 | 65 | 173 | 6.1 | 19.1 | 0.00 | 0.06 | 0.06 | 74 | 1002.7 |
| 20260507121510 | 65 | 183 | 7.8 | 19.1 | 0.00 | 0.06 | 0.06 | 76 | 1002.1 |
| 20260507121010 | 65 | 185 | 8.7 | 19.1 | 0.00 | 0.06 | 0.06 | 77 | 1002.2 |
| 20260507120511 | 65 | 189 | 8.7 | 25.2 | 0.00 | 0.06 | 0.06 | 79 | 1002.3 |
| 20260507120010 | 65 | 189 | 7.8 | 25.2 | 0.00 | 0.06 | 0.06 | 81 | 1001.9 |
| 20260507115510 | 65 | 176 | 9.6 | 20.9 | 0.00 | 0.06 | 0.06 | 83 | 1002.0 |
| 20260507115011 | 65 | 171 | 10.4 | 21.7 | 0.00 | 0.06 | 0.06 | 83 | 1001.9 |
| 20260507114510 | 66 | 167 | 6.1 | 21.7 | 0.00 | 0.06 | 0.06 | 84 | 1001.7 |
| 20260507114010 | 66 | 165 | 8.7 | 19.1 | 0.00 | 0.06 | 0.06 | 84 | 1001.7 |
| 20260507113511 | 66 | 166 | 6.1 | 20.0 | 0.00 | 0.06 | 0.06 | 84 | 1001.6 |
| 20260507113010 | 66 | 162 | 6.1 | 20.0 | 0.00 | 0.06 | 0.06 | 84 | 1001.5 |
| 20260507112010 | 66 | 187 | 7.8 | 19.1 | 0.00 | 0.06 | 0.06 | 85 | 1001.5 |
| 20260507111511 | 66 | 193 | 4.3 | 23.5 | 0.00 | 0.06 | 0.06 | 85 | 1001.0 |
| 20260507111010 | 66 | 195 | 9.6 | 23.5 | 0.00 | 0.06 | 0.06 | 86 | 1001.0 |
| 20260507110510 | 67 | 196 | 8.7 | 23.5 | 0.00 | 0.06 | 0.06 | 85 | 1000.8 |
| 20260507110010 | 67 | 183 | 3.5 | 20.0 | 0.00 | 0.06 | 0.06 | 86 | 1001.1 |
| 20260507104511 | 67 | 187 | 8.7 | 18.2 | 0.00 | 0.06 | 0.06 | 86 | 1000.6 |
| 20260507104010 | 67 | 187 | 7.0 | 18.2 | 0.00 | 0.06 | 0.06 | 87 | 1000.7 |
| 20260507103510 | 67 | 174 | 5.2 | 17.4 | 0.00 | 0.06 | 0.06 | 87 | 1000.3 |
| 20260507103010 | 67 | 165 | 6.1 | 15.6 | 0.00 | 0.06 | 0.06 | 86 | 1000.3 |
| 20260507102511 | 67 | 182 | 7.8 | 20.0 | 0.00 | 0.06 | 0.06 | 86 | 999.8 |
| 20260507102010 | 67 | 185 | 7.8 | 20.0 | 0.00 | 0.06 | 0.06 | 86 | 999.8 |
| 20260507101511 | 67 | 181 | 7.0 | 15.6 | 0.00 | 0.06 | 0.06 | 86 | 999.6 |
| 20260507101011 | 67 | 191 | 7.8 | 20.0 | 0.00 | 0.06 | 0.06 | 86 | 999.8 |
| 20260507100510 | 67 | 178 | 7.8 | 20.0 | 0.00 | 0.06 | 0.06 | 86 | 999.5 |
| 20260507100010 | 67 | 175 | 7.0 | 19.1 | 0.00 | 0.06 | 0.06 | 86 | 999.5 |
| 20260507095510 | 67 | 190 | 7.0 | 15.6 | 0.00 | 0.06 | 0.06 | 87 | 999.3 |
| 20260507095010 | 67 | 194 | 7.8 | 15.6 | 0.00 | 0.06 | 0.06 | 87 | 999.1 |
| 20260507094011 | 67 | 192 | 7.0 | 17.4 | 0.00 | 0.06 | 0.06 | 87 | 998.7 |
| 20260507093510 | 67 | 181 | 9.6 | 18.2 | 0.00 | 0.06 | 0.06 | 88 | 998.4 |
| 20260507093010 | 68 | 201 | 5.2 | 19.1 | 0.00 | 0.06 | 0.06 | 88 | 998.3 |
| 20260507092009 | 68 | 178 | 9.6 | 19.1 | 0.01 | 0.06 | 0.06 | 88 | 998.1 |
| 20260507091010 | 68 | 196 | 8.7 | 19.1 | 0.01 | 0.06 | 0.06 | 88 | 997.7 |
| 20260507090511 | 68 | 172 | 7.8 | 17.4 | 0.01 | 0.06 | 0.06 | 88 | 998.2 |
| 20260507090010 | 68 | 176 | 4.3 | 14.8 | 0.01 | 0.06 | 0.06 | 88 | 998.3 |
| 20260507085510 | 68 | 171 | 6.1 | 14.8 | 0.01 | 0.06 | 0.06 | 89 | 998.6 |
| 20260507085010 | 68 | 173 | 4.3 | 14.8 | 0.01 | 0.06 | 0.06 | 89 | 998.8 |
| 20260507084510 | 68 | 189 | 5.2 | 14.8 | 0.02 | 0.06 | 0.06 | 89 | 998.9 |
| 20260507084010 | 67 | 191 | 7.0 | 12.2 | 0.06 | 0.06 | 0.06 | 89 | 999.2 |
| 20260507083510 | 67 | 177 | 7.8 | 12.2 | 0.06 | 0.06 | 0.06 | 89 | 998.3 |
| 20260507083011 | 68 | 186 | 5.2 | 11.3 | 0.06 | 0.06 | 0.06 | 89 | 998.3 |
| 20260507082510 | 68 | 182 | 3.5 | 11.3 | 0.06 | 0.06 | 0.06 | 88 | 998.5 |
| 20260507082010 | 68 | 166 | 1.7 | 12.2 | 0.05 | 0.05 | 0.05 | 88 | 998.8 |
| 20260507081511 | 68 | 179 | 3.5 | 12.2 | 0.05 | 0.05 | 0.05 | 87 | 998.4 |
| 20260507081010 | 68 | 189 | 6.1 | 11.3 | 0.05 | 0.05 | 0.05 | 87 | 999.0 |
| 20260507080511 | 68 | 182 | 5.2 | 9.6 | 0.05 | 0.05 | 0.05 | 88 | 998.9 |
| 20260507075522 | 68 | 185 | 2.6 | 9.6 | 0.05 | 0.05 | 0.05 | 88 | 999.2 |
| 20260507075022 | 69 | 178 | 1.7 | 9.6 | 0.05 | 0.05 | 0.05 | 87 | 998.9 |
| 20260507074522 | 69 | 164 | 3.5 | 9.6 | 0.04 | 0.04 | 0.04 | 85 | 999.1 |
| 20260507073522 | 70 | 148 | 2.6 | 9.6 | 0.00 | 0.00 | 0.00 | 84 | 999.2 |
| 20260507073022 | 70 | 142 | 3.5 | 9.6 | 0.00 | 0.00 | 0.00 | 84 | 999.2 |
| 20260507072523 | 70 | 140 | 2.6 | 9.6 | 0.00 | 0.00 | 0.00 | 83 | 999.6 |
| 20260507072022 | 71 | 158 | 5.2 | 9.6 | 0.00 | 0.00 | 0.00 | 81 | 999.5 |
| 20260507071522 | 71 | 158 | 2.6 | 9.6 | 0.00 | 0.00 | 0.00 | 79 | 999.4 |
| 20260507070522 | 72 | 151 | 2.6 | 9.6 | 0.00 | 0.00 | 0.00 | 81 | 999.6 |
| 20260507070022 | 72 | 168 | 2.6 | 11.3 | 0.00 | 0.00 | 0.00 | 82 | 999.2 |
| 20260507065522 | 72 | 164 | 3.5 | 15.6 | 0.00 | 0.00 | 0.00 | 83 | 998.9 |
| 20260507065022 | 73 | 161 | 9.6 | 15.6 | 0.00 | 0.00 | 0.00 | 85 | 999.3 |
| 20260507064523 | 75 | 167 | 1.7 | 5.2 | 0.00 | 0.00 | 0.00 | 88 | 999.1 |
| 20260507063522 | 75 | 219 | 1.7 | 12.2 | 0.00 | 0.00 | 0.00 | 87 | 999.2 |
| 20260507063022 | 75 | 273 | 6.1 | 12.2 | 0.00 | 0.00 | 0.00 | 87 | 999.1 |
| 20260507062522 | 75 | 317 | 2.6 | 7.8 | 0.00 | 0.00 | 0.00 | 87 | 998.6 |
| 20260507061523 | 75 | 348 | 3.5 | 7.0 | 0.00 | 0.00 | 0.00 | 88 | 998.3 |
| 20260507061022 | 74 | 344 | 3.5 | 7.0 | 0.00 | 0.00 | 0.00 | 88 | 998.5 |
| 20260507060521 | 75 | 330 | 3.5 | 7.8 | 0.00 | 0.00 | 0.00 | 88 | 998.5 |
| 20260507060022 | 75 | 307 | 6.1 | 7.8 | 0.00 | 0.00 | 0.00 | 87 | 998.5 |
| 20260507055022 | 75 | 303 | 3.5 | 6.1 | 0.00 | 0.00 | 0.00 | 87 | 998.7 |
| 20260507054022 | 75 | 305 | 4.3 | 6.1 | 0.00 | 0.00 | 0.00 | 86 | 999.1 |
| 20260507053022 | 76 | 303 | 3.5 | 6.1 | 0.00 | 0.00 | 0.00 | 85 | 999.2 |
| 20260507052522 | 76 | 306 | 3.5 | 6.1 | 0.00 | 0.00 | 0.00 | 85 | 999.2 |
| 20260507052022 | 76 | 313 | 3.5 | 7.8 | 0.00 | 0.00 | 0.00 | 85 | 999.3 |
| 20260507051522 | 76 | 320 | 3.5 | 7.8 | 0.00 | 0.00 | 0.00 | 85 | 999.4 |
| 20260507051022 | 76 | 325 | 5.2 | 9.6 | 0.00 | 0.00 | 0.00 | 85 | 999.2 |
| 20260507050521 | 76 | 334 | 4.3 | 9.6 | 0.00 | 0.00 | 0.00 | 84 | 998.9 |
| 20260507050022 | 76 | 334 | 7.0 | 9.6 | 0.00 | 0.00 | 0.00 | 84 | 999.0 |
| 20260507045522 | 76 | 331 | 5.2 | 9.6 | 0.00 | 0.00 | 0.00 | 84 | 999.2 |
| 20260507045022 | 76 | 326 | 5.2 | 9.6 | 0.00 | 0.00 | 0.00 | 83 | 999.3 |
| 20260507044523 | 76 | 328 | 5.2 | 9.6 | 0.00 | 0.00 | 0.00 | 83 | 999.3 |
| 20260507044022 | 76 | 336 | 6.1 | 9.6 | 0.00 | 0.00 | 0.00 | 83 | 999.0 |
| 20260507043523 | 76 | 337 | 7.0 | 9.6 | 0.00 | 0.00 | 0.00 | 83 | 999.1 |
| 20260507043022 | 76 | 339 | 4.3 | 12.2 | 0.00 | 0.00 | 0.00 | 83 | 999.0 |
| 20260507041522 | 77 | 341 | 7.0 | 9.6 | 0.00 | 0.00 | 0.00 | 83 | 999.1 |
| 20260507041022 | 77 | 349 | 7.0 | 9.6 | 0.00 | 0.00 | 0.00 | 82 | 999.1 |
| 20260507040522 | 77 | 337 | 5.2 | 9.6 | 0.00 | 0.00 | 0.00 | 82 | 999.3 |
| 20260507040021 | 77 | 332 | 3.5 | 7.8 | 0.00 | 0.00 | 0.00 | 81 | 999.3 |
| 20260507035022 | 77 | 337 | 4.3 | 12.2 | 0.00 | 0.00 | 0.00 | 81 | 999.2 |
| 20260507034522 | 77 | 339 | 9.6 | 13.0 | 0.00 | 0.00 | 0.00 | 81 | 999.5 |
| 20260507034022 | 77 | 342 | 7.8 | 13.0 | 0.00 | 0.00 | 0.00 | 81 | 999.3 |
| 20260507033522 | 77 | 341 | 7.8 | 13.9 | 0.00 | 0.00 | 0.00 | 81 | 999.5 |
| 20260507033022 | 77 | 341 | 9.6 | 13.9 | 0.00 | 0.00 | 0.00 | 81 | 999.5 |
| 20260507032522 | 77 | 341 | 8.7 | 13.0 | 0.00 | 0.00 | 0.00 | 81 | 999.8 |
| 20260507031522 | 77 | 339 | 7.0 | 9.6 | 0.00 | 0.00 | 0.00 | 81 | 999.5 |
| 20260507031022 | 77 | 338 | 7.0 | 9.6 | 0.00 | 0.00 | 0.00 | 81 | 999.8 |
| 20260507030522 | 78 | 333 | 6.1 | 9.6 | 0.00 | 0.00 | 0.00 | 80 | 999.6 |
| 20260507030022 | 78 | 336 | 4.3 | 7.0 | 0.00 | 0.00 | 0.00 | 80 | 1000.1 |
| 20260507025523 | 78 | 344 | 3.5 | 7.0 | 0.00 | 0.00 | 0.00 | 80 | 999.9 |
| 20260507025023 | 78 | 333 | 3.5 | 6.1 | 0.00 | 0.00 | 0.00 | 80 | 1000.2 |
| 20260507024022 | 78 | 336 | 3.5 | 9.6 | 0.00 | 0.00 | 0.00 | 80 | 1000.2 |
| 20260507023522 | 78 | 342 | 3.5 | 9.6 | 0.00 | 0.00 | 0.00 | 79 | 1000.1 |
| 20260507023022 | 78 | 345 | 7.0 | 9.6 | 0.00 | 0.00 | 0.00 | 79 | 1000.2 |
| 20260507022521 | 78 | 344 | 7.0 | 7.8 | 0.00 | 0.00 | 0.00 | 79 | 999.9 |
| 20260507022022 | 78 | 342 | 4.3 | 7.0 | 0.00 | 0.00 | 0.00 | 78 | 1000.3 |
| 20260507021522 | 78 | 339 | 3.5 | 7.8 | 0.00 | 0.00 | 0.00 | 78 | 1000.1 |
| 20260507021022 | 79 | 338 | 5.2 | 7.8 | 0.00 | 0.00 | 0.00 | 78 | 1000.3 |
| 20260507020522 | 79 | 342 | 4.3 | 7.0 | 0.00 | 0.00 | 0.00 | 78 | 1000.1 |
| 20260507015522 | 79 | 349 | 2.6 | 9.6 | 0.00 | 0.00 | 0.00 | 78 | 999.9 |
| 20260507015022 | 79 | 341 | 3.5 | 9.6 | 0.00 | 0.00 | 0.00 | 77 | 1000.1 |
| 20260507014521 | 79 | 338 | 4.3 | 7.8 | 0.00 | 0.00 | 0.00 | 78 | 999.9 |
| 20260507014022 | 78 | 342 | 4.3 | 7.8 | 0.00 | 0.00 | 0.00 | 78 | 1000.0 |
| 20260507013522 | 78 | 356 | 5.2 | 12.2 | 0.00 | 0.00 | 0.00 | 78 | 1000.0 |
| 20260507013023 | 79 | 7 | 4.3 | 12.2 | 0.00 | 0.00 | 0.00 | 77 | 999.6 |
| 20260507012522 | 79 | 2 | 7.8 | 12.2 | 0.00 | 0.00 | 0.00 | 77 | 999.6 |
| 20260507012021 | 79 | 355 | 6.1 | 11.3 | 0.00 | 0.00 | 0.00 | 77 | 999.5 |
| 20260507011521 | 79 | 352 | 6.1 | 13.0 | 0.00 | 0.00 | 0.00 | 77 | 999.8 |
| 20260507011022 | 79 | 357 | 7.0 | 13.0 | 0.00 | 0.00 | 0.00 | 77 | 999.6 |
| 20260507010522 | 79 | 355 | 9.6 | 13.0 | 0.00 | 0.00 | 0.00 | 76 | 999.6 |
| 20260507010021 | 79 | 345 | 7.0 | 13.0 | 0.00 | 0.00 | 0.00 | 76 | 999.4 |
| 20260507005021 | 79 | 350 | 7.0 | 13.9 | 0.00 | 0.00 | 0.00 | 76 | 999.3 |
| 20260507004521 | 79 | 351 | 6.1 | 15.6 | 0.00 | 0.00 | 0.00 | 76 | 999.4 |
| 20260507004022 | 79 | 351 | 10.4 | 15.6 | 0.00 | 0.00 | 0.00 | 76 | 999.5 |
| 20260507002521 | 80 | 342 | 7.0 | 12.2 | 0.00 | 0.00 | 0.00 | 76 | 999.6 |
| 20260507001522 | 80 | 342 | 7.0 | 13.0 | 0.00 | 0.00 | 0.00 | 75 | 999.5 |
| 20260507000522 | 80 | 351 | 5.2 | 12.2 | 0.00 | 0.00 | 0.00 | 75 | 999.7 |
| 20260507000022 | 80 | 356 | 5.2 | 12.2 | 0.00 | 0.00 | 0.00 | 74 | 999.7 |
| 20260506235521 | 81 | 344 | 7.0 | 13.0 | 0.00 | 0.00 | 0.00 | 73 | 999.9 |
| 20260506234521 | 81 | 341 | 4.3 | 12.2 | 0.00 | 0.00 | 0.00 | 72 | 999.8 |
| 20260506234022 | 82 | 343 | 7.0 | 12.2 | 0.00 | 0.00 | 0.00 | 71 | 999.7 |
| 20260506233521 | 82 | 338 | 6.1 | 13.9 | 0.00 | 0.00 | 0.00 | 71 | 999.9 |
| 20260506233021 | 82 | 340 | 6.1 | 15.6 | 0.00 | 0.00 | 0.00 | 70 | 999.7 |
| 20260506232522 | 82 | 345 | 9.6 | 18.2 | 0.00 | 0.00 | 0.00 | 69 | 999.7 |
| 20260506232021 | 82 | 346 | 6.1 | 18.2 | 0.00 | 0.00 | 0.00 | 69 | 999.5 |
| 20260506231522 | 83 | 341 | 10.4 | 18.2 | 0.00 | 0.00 | 0.00 | 69 | 999.3 |
| 20260506230522 | 83 | 332 | 7.0 | 19.1 | 0.00 | 0.00 | 0.00 | 69 | 999.5 |
| 20260506225522 | 83 | 357 | 7.0 | 20.0 | 0.00 | 0.00 | 0.00 | 69 | 999.5 |
| 20260506225021 | 83 | 350 | 11.3 | 20.0 | 0.00 | 0.00 | 0.00 | 69 | 999.5 |
| 20260506223522 | 82 | 350 | 9.6 | 46.9 | 0.00 | 0.00 | 0.00 | 70 | 999.5 |
| 20260506223022 | 83 | 348 | 9.6 | 17.4 | 0.00 | 0.00 | 0.00 | 70 | 999.8 |
| 20260506222521 | 83 | 358 | 7.0 | 14.8 | 0.00 | 0.00 | 0.00 | 70 | 1000.0 |
| 20260506222022 | 83 | 5 | 7.8 | 14.8 | 0.00 | 0.00 | 0.00 | 70 | 999.7 |
| 20260506221521 | 83 | 358 | 7.0 | 13.9 | 0.00 | 0.00 | 0.00 | 69 | 1000.1 |
| 20260506221023 | 83 | 356 | 7.0 | 9.6 | 0.00 | 0.00 | 0.00 | 69 | 1000.1 |
| 20260506220021 | 83 | 342 | 5.2 | 11.3 | 0.00 | 0.00 | 0.00 | 69 | 999.8 |
| 20260506215522 | 84 | 349 | 5.2 | 12.2 | 0.00 | 0.00 | 0.00 | 69 | 1000.0 |
| 20260506214522 | 84 | 343 | 6.1 | 9.6 | 0.00 | 0.00 | 0.00 | 69 | 1000.0 |
| 20260506213521 | 84 | 341 | 5.2 | 11.3 | 0.00 | 0.00 | 0.00 | 68 | 1000.2 |
| 20260506213022 | 85 | 340 | 4.3 | 12.2 | 0.00 | 0.00 | 0.00 | 68 | 1000.4 |
| 20260506212521 | 85 | 346 | 7.0 | 13.9 | 0.00 | 0.00 | 0.00 | 67 | 1000.3 |
| 20260506212022 | 85 | 344 | 7.0 | 19.1 | 0.00 | 0.00 | 0.00 | 66 | 1000.1 |
| 20260506211522 | 85 | 334 | 8.7 | 19.1 | 0.00 | 0.00 | 0.00 | 66 | 1000.1 |
| 20260506211021 | 85 | 346 | 7.8 | 14.8 | 0.00 | 0.00 | 0.00 | 66 | 1000.0 |
| 20260506210521 | 85 | 353 | 13.0 | 17.4 | 0.00 | 0.00 | 0.00 | 65 | 1000.0 |
| 20260506210021 | 86 | 347 | 10.4 | 17.4 | 0.00 | 0.00 | 0.00 | 65 | 999.7 |
| 20260506205521 | 86 | 340 | 7.8 | 14.8 | 0.00 | 0.00 | 0.00 | 65 | 999.9 |
| 20260506205022 | 86 | 334 | 7.8 | 14.8 | 0.00 | 0.00 | 0.00 | 64 | 999.8 |
| 20260506204022 | 86 | 339 | 10.4 | 19.1 | 0.00 | 0.00 | 0.00 | 64 | 1000.0 |
| 20260506203521 | 87 | 334 | 9.6 | 19.1 | 0.00 | 0.00 | 0.00 | 63 | 1000.0 |
| 20260506203021 | 87 | 342 | 10.4 | 18.2 | 0.00 | 0.00 | 0.00 | 63 | 1000.2 |